[[{"header":{"parameterUnit":"m.s-1","parameterCategory":1,"la1":30.2991,"la2":30.254,"lo1":-89.0895,"lo2":-89.0444,"dy":0.0017,"dx":0.0017,"nx":28,"ny":28,"refTime":"2023-10-27T03:00:00:Z","depth":0,"parameterNumber":2,"parameterNumberName":"U-component_of_WINDS"},"data":[0,0,0,0,0,0,0,0,0,0,0,0,0,0,0,0,0,0,0,0,0,0,0,0,0,0,0,0,0,0,0,0,0,0,0,0,0,0,0,0,0,0,0,0,0,0,0,0,0,0,0,0,0,0,0,0,0,0,-3.5309,-3.5309,0,-3.5317,-3.5317,-3.5317,-3.5218,-3.5216,-3.5213,-3.521,-3.5218,-3.522,-3.5223,0,0,0,0,0,0,0,0,0,0,0,0,0,-3.521,-3.5212,-3.5309,-3.5309,-3.5309,-3.5317,-3.5317,-3.5317,-3.5219,-3.5215,-3.5212,-3.5209,-3.5217,-3.522,-3.5223,0,0,0,0,0,0,0,0,0,0,0,0,0,-3.5239,-3.5213,-3.5309,-3.5261,-3.5257,-3.5317,-3.5317,-3.5317,-3.5219,-3.5215,-3.5211,-3.5208,-3.5216,-3.522,-3.5224,-3.5329,0,0,-3.5236,-3.5238,0,0,0,0,0,0,0,0,-3.5237,-3.5242,-3.5268,-3.5265,-3.526,-3.5262,-3.5284,-3.5321,-3.522,-3.5234,-3.521,-3.5206,-3.5236,-3.5238,-3.5248,-3.533,-3.533,-3.5236,-3.5239,-3.5241,-3.5242,0,0,0,0,0,0,0,-3.5235,-3.5242,-3.5312,-3.5269,-3.5264,-3.5239,-3.5239,-3.5291,-3.5257,-3.5232,-3.5225,-3.5227,-3.5233,-3.5245,-3.5248,-3.533,-3.5236,-3.524,-3.5242,-3.5244,-3.5498,-3.5502,0,0,0,0,0,0,-3.524,-3.5241,-3.5312,-3.5312,-3.5239,-3.5245,-3.5244,-3.5266,-3.5256,-3.5251,-3.5231,-3.5223,-3.524,-3.5243,-3.5247,-3.537,-3.524,-3.5244,-3.5247,-3.5494,-3.5499,-3.5504,0,0,0,0,0,0,-3.5238,-3.5247,-3.5312,-3.5275,-3.5281,-3.525,-3.5276,-3.5268,-3.528,-3.5255,-3.5249,-3.5249,-3.5237,-3.5242,-3.531,-3.5369,-3.5246,-3.525,-3.5489,-3.5495,-3.5501,-3.5616,0,0,0,0,0,0,-3.5236,-3.5247,-3.5287,-3.5276,-3.5283,-3.5374,-3.5279,-3.5271,-3.5287,-3.5276,-3.5271,-3.5266,-3.5234,-3.5304,-3.5314,-3.5372,-3.5253,-3.5483,-3.5492,-3.5499,-3.5607,-3.5626,-3.5642,0,0,0,0,0,-3.5232,-3.5319,-3.5289,-3.5299,-3.5332,-3.5378,-3.5381,-3.5343,-3.5292,-3.5332,-3.5316,-3.5266,-3.5361,-3.5312,-3.5322,-3.5382,-3.5479,-3.5489,-3.5499,-3.5599,-3.5622,-3.5642,0,0,0,0,0,0,-3.5337,-3.5316,-3.5284,-3.5369,-3.5376,-3.5361,-3.5409,-3.5369,-3.539,-3.5379,-3.533,-3.533,-3.5406,-3.5401,-3.5346,-3.5484,-3.5411,-3.5423,-3.5484,-3.5506,-3.5523,-3.5522,-3.5256,0,0,0,0,0,-3.537,-3.5409,-3.5389,-3.5466,-3.5471,-3.544,-3.5458,-3.5428,-3.5433,-3.5435,-3.5425,-3.5431,-3.5462,-3.5484,-3.5511,-3.5606,-3.5603,-3.5653,-3.567,-3.5685,-3.5696,-3.5745,-3.5767,-3.5536,-3.5536,-3.5535,0,0,-3.5438,-3.5432,-3.5459,-3.5487,-3.5488,-3.5529,-3.5443,-3.549,-3.5519,-3.5442,-3.5505,-3.5498,-3.5502,-3.5584,-3.562,-3.5583,-3.5759,-3.5697,-3.5709,-3.5712,-3.5757,-3.5779,-3.5799,-3.5542,-3.5541,-3.554,0,0,-3.5584,-3.5583,-3.5647,-3.5651,-3.5655,-3.5634,-3.565,-3.5641,-3.5633,-3.5696,-3.5639,-3.5674,-3.5729,-3.5734,-3.5744,-3.5893,-3.5847,-3.5903,-3.5994,-3.6043,-3.6061,-3.6077,-3.6129,-3.6148,-3.5914,-3.5914,-3.5915,0,-3.5668,-3.5727,-3.5686,-3.5736,-3.575,-3.5683,-3.5747,-3.5753,-3.5766,-3.5777,-3.5735,-3.5803,-3.5801,-3.5883,-3.5919,-3.593,-3.5946,-3.5903,-3.6062,-3.6077,-3.6091,-3.6141,-3.6161,-3.5921,-3.592,-3.592,-3.5919,0,-3.5831,-3.5873,-3.5924,-3.5939,-3.5958,-3.6016,-3.5983,-3.6008,-3.5976,-3.596,-3.6025,-3.602,-3.6046,-3.6063,-3.6033,-3.6141,-3.6118,-3.607,-3.5995,-3.6121,-3.6166,-3.6185,-3.5931,-3.5928,-3.5926,-3.5925,0,0,-3.6041,-3.6032,-3.6051,-3.6057,-3.6057,-3.6088,-3.6143,-3.6168,-3.619,-3.6202,-3.6246,-3.6294,-3.625,-3.6262,-3.6232,-3.6275,-3.6392,-3.6221,-3.6221,-3.6252,-3.651,-3.6546,-3.6568,-3.6363,-3.6366,-3.6369,-3.651,0,-3.6181,-3.6274,-3.6238,-3.6334,-3.6372,-3.6309,-3.6357,-3.6362,-3.6348,-3.6379,-3.6363,-3.6398,-3.6338,-3.6344,-3.6384,-3.6369,-3.6443,-3.6359,-3.6403,-3.6405,-3.6402,-3.6592,-3.6629,-3.6762,-3.6527,-3.653,-3.6532,0,-3.6357,-3.6376,-3.6476,-3.6469,-3.6483,-3.6527,-3.6547,-3.6577,-3.6582,-3.6569,-3.6582,-3.6543,-3.6596,-3.6523,-3.6595,-3.6539,-3.6555,-3.6551,-3.6555,-3.6556,-3.6475,-3.6598,-3.6804,-3.6824,-3.656,-3.6558,-3.6556,0,-3.65,-3.655,-3.6616,-3.6623,-3.6617,-3.6649,-3.6648,-3.6648,-3.6666,-3.6683,-3.6694,-3.6718,-3.6731,-3.6751,-3.6719,-3.6669,-3.6796,-3.672,-3.6786,-3.6787,-3.6814,-3.6813,-3.7025,-3.6827,-3.6827,-3.6826,-3.6826,0,-3.666,-3.6723,-3.6679,-3.672,-3.6789,-3.6747,-3.6817,-3.6809,-3.681,-3.6848,-3.6795,-3.6832,-3.6788,-3.6821,-3.6796,-3.6859,-3.6866,-3.6857,-3.6849,-3.6861,-3.6862,-3.687,-3.6859,-3.6831,-3.683,-3.6829,-3.6828,0,-3.6829,-3.6803,-3.687,-3.686,-3.6858,-3.691,-3.69,-3.6937,-3.692,-3.6969,-3.6978,-3.6951,-3.6987,-3.6957,-3.6992,-3.6975,-3.7059,-3.7039,-3.7058,-3.7052,-3.7119,-3.7112,-3.7342,-3.737,-3.7155,-3.7158,-3.7159,0,-3.6933,-3.698,-3.6974,-3.6996,-3.6998,-3.7034,-3.7051,-3.7013,-3.7033,-3.7043,-3.7079,-3.711,-3.7132,-3.7192,-3.7176,-3.7202,-3.7181,-3.726,-3.7185,-3.7195,-3.7181,-3.7179,-3.7183,-3.7275,-3.7278,-3.728,-3.7281,0,-3.7119,-3.7103,-3.7131,-3.7155,-3.7177,-3.7194,-3.7206,-3.7227,-3.7188,-3.7214,-3.7249,-3.7267,-3.7302,-3.7334,-3.7355,-3.7353,-3.7311,-3.7306,-3.7322,-3.7333,-3.7342,-3.7337,-3.7098,-3.73,-3.7298,-3.7297,-3.7296,-3.7295,-3.7257,-3.7296,-3.7299,-3.7331,-3.7337,-3.735,-3.7384,-3.7371,-3.7401,-3.7426,-3.7402,-3.7445,-3.7449,-3.7473,-3.7477,-3.751,-3.7477,-3.7501,-3.7507,-3.7513,-3.7522,-3.7338,-3.7514,-3.7513,-3.7512,-3.7512,-3.7512,0,-3.744,-3.7438,-3.7469,-3.7488,-3.7514,-3.7473,-3.7484,-3.7509,-3.7547,-3.7554,-3.7578,-3.7619,-3.765,-3.7636,-3.7663,-3.7692,-3.7673,-3.77,-3.7697,-3.7697,-3.7551,-3.7533,-3.7715,-3.7715,-3.7715,-3.7715,-3.7715,-3.7715,-3.7538,-3.7601,-3.7586,-3.7652,-3.765,-3.7692,-3.7702,-3.7714,-3.7719,-3.7768,-3.7793,-3.7784,-3.7783,-3.7809,-3.7836,-3.7831,-3.7843,-3.7877,-3.7865,-3.7728,-3.7708,-3.7689,-3.7672,-3.788,-3.788,-3.8009,-3.801,-3.8011]},{"header":{"parameterUnit":"m.s-1","parameterCategory":1,"la1":30.2991,"la2":30.254,"lo1":-89.0895,"lo2":-89.0444,"dy":0.0017,"dx":0.0017,"nx":28,"ny":28,"refTime":"2023-10-27T03:00:00:Z","depth":0,"parameterNumber":3,"parameterNumberName":"V-component_of_WINDS"},"data":[0,0,0,0,0,0,0,0,0,0,0,0,0,0,0,0,0,0,0,0,0,0,0,0,0,0,0,0,0,0,0,0,0,0,0,0,0,0,0,0,0,0,0,0,0,0,0,0,0,0,0,0,0,0,0,0,0,0,1.7136,1.7136,0,1.7166,1.7167,1.7167,1.7169,1.7169,1.7168,1.7168,1.7197,1.7198,1.7199,0,0,0,0,0,0,0,0,0,0,0,0,0,1.7079,1.708,1.7136,1.7136,1.7137,1.7166,1.7167,1.7167,1.7169,1.7169,1.7168,1.7168,1.7196,1.7197,1.7199,0,0,0,0,0,0,0,0,0,0,0,0,0,1.7106,1.708,1.7136,1.7141,1.7142,1.7166,1.7167,1.7167,1.7169,1.7169,1.7168,1.7168,1.7196,1.7197,1.7199,1.7219,0,0,1.7204,1.7205,0,0,0,0,0,0,0,0,1.7104,1.7108,1.714,1.7141,1.7142,1.7164,1.7157,1.7184,1.7169,1.7159,1.7168,1.7168,1.7186,1.7188,1.7195,1.722,1.7221,1.7204,1.7205,1.7206,1.7206,0,0,0,0,0,0,0,1.7102,1.7106,1.7148,1.7141,1.7142,1.7142,1.7145,1.7162,1.7175,1.716,1.716,1.7164,1.7186,1.7193,1.7196,1.7222,1.7204,1.7205,1.7206,1.7207,1.7266,1.7267,0,0,0,0,0,0,1.71,1.7105,1.7147,1.7149,1.7122,1.7143,1.7147,1.7157,1.7175,1.7177,1.7164,1.7164,1.7191,1.7194,1.7197,1.7222,1.7206,1.7207,1.7208,1.7265,1.7266,1.7267,0,0,0,0,0,0,1.7098,1.7103,1.7146,1.7127,1.7132,1.7145,1.7156,1.7158,1.7165,1.7178,1.718,1.7169,1.7191,1.7194,1.7214,1.7223,1.7208,1.7209,1.7265,1.7266,1.7267,1.7272,0,0,0,0,0,0,1.7097,1.7103,1.7111,1.7127,1.7133,1.7163,1.7157,1.7159,1.7168,1.7168,1.7183,1.7185,1.719,1.7211,1.7215,1.7225,1.7211,1.7264,1.7265,1.7266,1.7271,1.7273,1.7274,0,0,0,0,0,1.7095,1.711,1.7111,1.7116,1.7144,1.7163,1.7167,1.7173,1.7169,1.7177,1.7185,1.7185,1.7221,1.7213,1.7218,1.7228,1.7263,1.7265,1.7266,1.727,1.7272,1.7274,0,0,0,0,0,0,1.7093,1.7112,1.7113,1.7135,1.7148,1.7164,1.7174,1.7175,1.7189,1.7188,1.7195,1.7198,1.7218,1.7225,1.7215,1.7249,1.7242,1.7244,1.7243,1.7246,1.7247,1.7245,1.7212,0,0,0,0,0,1.7095,1.711,1.7126,1.7143,1.715,1.7161,1.7169,1.7174,1.7187,1.7192,1.7201,1.7214,1.7228,1.7237,1.7251,1.7272,1.7276,1.7281,1.7283,1.7284,1.7286,1.7299,1.7302,1.7271,1.7271,1.7271,0,0,1.7099,1.7112,1.7121,1.7143,1.7154,1.7169,1.7165,1.7181,1.7192,1.7194,1.7213,1.7221,1.7235,1.7256,1.7265,1.7262,1.7296,1.7286,1.7287,1.7288,1.7301,1.7304,1.7306,1.7272,1.7272,1.7272,0,0,1.7115,1.7126,1.7142,1.7153,1.717,1.7177,1.7181,1.7198,1.7203,1.7223,1.7225,1.7238,1.7263,1.7273,1.7281,1.7304,1.7304,1.7308,1.7317,1.7329,1.7332,1.7334,1.7342,1.7345,1.731,1.731,1.731,0,1.7118,1.7142,1.715,1.7167,1.7177,1.7181,1.7197,1.7207,1.7227,1.7234,1.723,1.7262,1.7271,1.7295,1.7301,1.7307,1.7312,1.7306,1.7331,1.7333,1.7335,1.7343,1.7346,1.731,1.731,1.731,1.731,0,1.7145,1.7162,1.7173,1.7194,1.7205,1.7221,1.7232,1.7242,1.7246,1.7254,1.7275,1.7287,1.7304,1.731,1.7312,1.7334,1.7332,1.733,1.7323,1.7339,1.7346,1.7349,1.7311,1.7311,1.731,1.731,0,0,1.7159,1.7186,1.719,1.72,1.7219,1.7232,1.7249,1.7267,1.7276,1.729,1.7304,1.7326,1.7324,1.7334,1.7338,1.7349,1.7367,1.7346,1.7346,1.735,1.7392,1.7394,1.7397,1.7367,1.7368,1.7368,1.7391,0,1.7178,1.7209,1.7218,1.7244,1.726,1.7265,1.7279,1.7293,1.7301,1.7315,1.7324,1.7339,1.7336,1.7342,1.7353,1.7362,1.7375,1.7361,1.7381,1.7381,1.7377,1.7401,1.7403,1.7424,1.7394,1.7395,1.7395,0,1.7203,1.7219,1.7247,1.7266,1.7273,1.7286,1.7304,1.7318,1.7333,1.7339,1.7351,1.7354,1.7372,1.7365,1.739,1.738,1.7388,1.7394,1.7395,1.7397,1.7389,1.7404,1.743,1.7433,1.74,1.7399,1.7399,0,1.7211,1.724,1.7261,1.7269,1.7292,1.7301,1.7311,1.7326,1.7336,1.7352,1.7359,1.7376,1.7385,1.7398,1.7406,1.74,1.7431,1.7424,1.7435,1.7435,1.7441,1.7441,1.7469,1.7447,1.7447,1.7447,1.7446,0,1.7231,1.7248,1.7265,1.7278,1.7298,1.7308,1.7327,1.7336,1.735,1.7365,1.737,1.7383,1.7394,1.7408,1.7415,1.7435,1.7439,1.7444,1.7445,1.7443,1.7443,1.7449,1.7448,1.7447,1.7447,1.7447,1.7447,0,1.7243,1.7255,1.7279,1.7299,1.7304,1.7318,1.7335,1.7347,1.7357,1.7375,1.738,1.7394,1.7412,1.7422,1.7444,1.7449,1.7471,1.7472,1.7466,1.7467,1.7478,1.7477,1.7512,1.7517,1.7491,1.7491,1.7491,0,1.7255,1.7269,1.7291,1.7302,1.7312,1.7329,1.7341,1.7351,1.7363,1.7383,1.7393,1.7412,1.7427,1.7456,1.7468,1.7485,1.7486,1.7497,1.7489,1.7487,1.7487,1.7486,1.7488,1.7498,1.7499,1.7499,1.7499,0,1.7275,1.7281,1.7298,1.7317,1.7331,1.7347,1.7362,1.7371,1.7384,1.7397,1.7416,1.7429,1.7452,1.7471,1.749,1.7499,1.7501,1.7502,1.7506,1.7504,1.75,1.7503,1.7471,1.7501,1.7501,1.7501,1.75,1.75,1.7287,1.73,1.7319,1.7338,1.7351,1.7366,1.7379,1.7391,1.7407,1.7429,1.7434,1.7454,1.747,1.7496,1.7506,1.7522,1.752,1.7525,1.7526,1.7527,1.7528,1.7498,1.7525,1.7525,1.7525,1.7525,1.7525,0,1.7308,1.732,1.7338,1.7361,1.7376,1.7378,1.7396,1.7408,1.7427,1.7442,1.7458,1.7481,1.7499,1.7513,1.7532,1.7542,1.7544,1.7547,1.7546,1.7548,1.7528,1.7524,1.7545,1.7545,1.7545,1.7545,1.7545,1.7545,1.732,1.7343,1.7351,1.7381,1.7393,1.7414,1.7424,1.7438,1.745,1.7476,1.7492,1.7501,1.7516,1.7537,1.7554,1.7557,1.7564,1.7567,1.7571,1.7552,1.755,1.7548,1.7543,1.7568,1.7568,1.7589,1.759,1.759]}]]